Location: *
(60.1759°S, 155.0663°W)
Time: 20:00:46
(UTC+00:00)

Cosmos 1484 Rocket - Pass Details

Date: 17 September 2019
Orbit: 505 x 561 km, 97.4° (Epoch: 16 October)

Event Time Altitude Azimuth Distance (km) Brightness Sun altitude
Rises 14:12:15 0° 18° (NNE) 2,648 6.2 -16.7°
Reaches altitude 10° 14:14:19 10° 18° (NNE) 1,774 5.3 -16.4°
Maximum altitude 14:18:10 90° 172° (S) 546 2.7 -16.0°
Drops below altitude 10° 14:22:07 10° 196° (SSW) 1,829 5.6 -15.6°
Sets 14:24:17 0° 195° (SSW) 2,737 6.5 -15.3°
